Flag for Germany Weather past 2 weeks in Bad Neuenahr-Ahrweiler, Rhineland-Palatinate, Germany

Now
34 °F

Passing clouds.


Feels Like: 25 °F
Forecast: 34 / 40 °F
Wind: 12 mph from Southwest

Location: Bonn-Hangelar

Current Time: Jan 29, 2015 at 8:11:44 AM

Latest Report: Jan 29, 2015 at 8:00 AM


Visibility: 38 mi

Pressure: 29.32 "Hg

Humidity: 90%

Dew point: 31 °F

Location of Bad Neuenahr-AhrweilerLocation

Historic Weather in Bad Neuenahr-Ahrweiler — Graph

°F

Bad Neuenahr-Ahrweiler temperature yesterday

Maximum temperature yesterday: 42 °F (at 6:00 PM)
Minimum temperature yesterday: 35 °F (at 8:00 PM)
Average temperature yesterday: 39 °F

Past Weeks' High & Low Weather Summary

 TemperatureHumidityPressure
High49 °F (Jan 15, 1:00 PM)100% (Jan 19, 11:00 PM)30.46 "Hg (Jan 19, 11:00 PM)
Low26 °F (Jan 21, 7:00 AM)65% (Jan 20, 3:00 PM)29.35 "Hg (Jan 29, 7:00 AM)
Average35 °F89%29.99 "Hg
* Reported Jan 14 7:00 AM — Jan 29 7:00 AM, Bad Neuenahr-Ahrweiler, Weather by CustomWeather, © 2014

Note: Actual official high and low records may vary slightly from our data, if they occured in-between our weather recording intervals... More about our weather records

Advertising

Bad Neuenahr-Ahrweiler weather history for previous 24 hours

 ConditionsComfort  
Time TempWeatherWind HumidityBarometerVisibility
7:00 AM
Jan 29
34 °FOvercast.13 mph86%29.35 "Hg37 mi
6:00 AM34 °FPassing clouds.10 mph86%29.38 "Hg28 mi
5:00 AM34 °FOvercast.12 mph85%29.41 "Hg19 mi
4:00 AM33 °FClear.9 mph83%29.44 "Hg22 mi
3:00 AM34 °FClear.10 mph78%29.47 "Hg22 mi
2:00 AM35 °FClear.9 mph77%29.50 "Hg25 mi
1:00 AM34 °FPassing clouds.8 mph81%29.50 "Hg25 mi
12:00 AM35 °FOvercast.10 mph82%29.53 "Hg22 mi
11:00 PM
Jan 28
35 °FPassing clouds.10 mph84%29.53 "Hg25 mi
10:00 PM36 °FPassing clouds.8 mph90%29.54 "Hg19 mi
9:00 PM36 °FPassing clouds.9 mph93%29.54 "Hg28 mi
8:00 PM35 °FLow clouds.7 mph99%29.54 "Hg16 mi
6:00 PM42 °FLight rain. Passing clouds.5 mph91%29.44 "Hg19 mi
5:00 PM41 °FLight rain. Low clouds.15 mph92%29.47 "Hg6 mi
4:00 PM41 °FLight rain. Low clouds.17 mph88%29.53 "Hg9 mi
3:00 PM41 °FOvercast.15 mph79%29.57 "Hg22 mi
2:00 PM41 °FLow clouds.16 mph78%29.65 "Hg22 mi
1:00 PM41 °FOvercast.15 mph82%29.71 "Hg19 mi
12:00 PM41 °FOvercast.13 mph83%29.81 "Hg19 mi
11:00 AM40 °FOvercast.14 mph85%29.86 "Hg12 mi
10:00 AM39 °FOvercast.12 mph87%29.90 "Hg16 mi
9:00 AM39 °FRain. Overcast.12 mph89%29.94 "Hg14 mi
8:00 AM38 °FRain. Overcast.12 mph92%29.98 "Hg12 mi
Weather by CustomWeather, © 2014

See weather overviewHow to use our weather pages